Weather in Yenangyaung

Myanmar     20°27′33″N   94°53′02″E
temp.,
°C
wind,
m/s
gust,
m/s
humid.,
%
clouds,
%
prec.,
mm/h
press.,
hPa
HPBL,
m
22 january, fri
fri2200:30+18wnw33732 0.0 101146
03:30+17nw237011 0.0 101138
06:30+16nnw45665 0.0 1013102
09:30+22n56510 0.0 1014669
12:30+27n44390 0.0 10121297
15:30+28nnw32320 0.0 10082272
18:30+23n34430 0.0 101050
21:30+21ne34510 0.0 101136
23 january, sat
sat2300:30+18wnw22620 0.0 101124
03:30+17nnw12670 0.0 101023
06:30+16nnw127012 0.0 101123
09:30+23nnw34450 0.0 1013456
12:30+28nw12330 0.0 10111752
15:30+29sw33300 0.0 10092022
18:30+24s12430 0.0 101024
21:30+22sse12480 0.0 101223
24 january, sun
sun2400:30+19w11580 0.0 101223
03:30+18nnw01620 0.0 101123
06:30+16nw11660 0.0 101223
09:30+23w11460 0.0 1014376
12:30+28sw22340 0.0 10121216
15:30+30ssw33280 0.0 10091565
18:30+25se23380 0.0 101024
21:30+23ese23410 0.0 101324
25 january, mon
mon2500:30+19sse12520 0.0 101223
03:30+18e11580 0.0 101223
06:30+16nne01630 0.0 101323
09:30+23nw12430 0.0 1015438
12:30+29nw22310 0.0 10121190
15:30+31wsw12240 0.0 10091713
18:30+25sw113529 0.0 101024
21:30+23n22420 0.0 101224
26 january, tue
tue2600:30+20ne11500 0.0 101123
03:30+19nnw11570 0.0 101123
06:30+17nnw11631 0.0 101223
09:30+25nnw23420 0.0 1014387
12:30+30nw21290 0.0 10111401
15:30+32wnw22220 0.0 10081726
18:30+25nnw22330 0.0 100924
21:30+23ene34420 0.0 101136